Time,TemperatureF,DewpointF,PressureIn,WindDirection,WindDirectionDegrees,WindSpeedMPH,WindSpeedGustMPH,Humidity,HourlyPrecipIn,Conditions,Clouds,dailyrainin,SoftwareType,DateUTC
2013-04-29 00:00:00,54.2,41.5,27.26,SSE,156,0.0,0.0,62,0.00,,,0.00,Wunderground v.1.15,2013-04-29 04:00:00,
2013-04-29 00:05:00,54.0,41.3,27.26,SSE,157,0.0,0.0,62,0.00,,,0.00,Wunderground v.1.15,2013-04-29 04:05:00,
2013-04-29 00:10:00,53.9,42.0,27.26,SSE,156,0.0,0.0,64,0.00,,,0.00,Wunderground v.1.15,2013-04-29 04:10:00,
2013-04-29 00:15:00,53.6,42.5,27.26,SSE,157,0.0,0.0,66,0.00,,,0.00,Wunderground v.1.15,2013-04-29 04:15:00,
2013-04-29 00:25:00,52.8,42.9,27.26,SSE,157,0.0,0.0,69,0.00,,,0.00,Wunderground v.1.15,2013-04-29 04:25:00,
2013-04-29 00:30:00,52.5,43.0,27.26,SSE,157,0.0,0.0,70,0.00,,,0.00,Wunderground v.1.15,2013-04-29 04:30:00,
2013-04-29 00:35:00,52.2,43.1,27.26,SSE,157,0.0,0.0,71,0.00,,,0.00,Wunderground v.1.15,2013-04-29 04:35:00,
2013-04-29 00:40:00,52.0,42.5,27.26,SSE,156,0.0,0.0,70,0.00,,,0.00,Wunderground v.1.15,2013-04-29 04:40:00,
2013-04-29 00:50:00,51.7,42.2,27.26,SSE,156,0.0,0.0,70,0.00,,,0.00,Wunderground v.1.15,2013-04-29 04:50:00,
2013-04-29 00:55:00,51.7,42.2,27.26,SSE,157,0.0,0.0,70,0.00,,,0.00,Wunderground v.1.15,2013-04-29 04:55:00,
2013-04-29 01:00:00,51.7,42.2,27.26,SSE,156,0.0,0.0,70,0.00,,,0.00,Wunderground v.1.15,2013-04-29 05:00:00,
2013-04-29 01:10:00,51.9,42.4,27.26,SSE,157,0.0,0.0,70,0.00,,,0.00,Wunderground v.1.15,2013-04-29 05:10:00,
2013-04-29 01:15:00,52.0,42.5,27.26,SSE,157,0.0,0.0,70,0.00,,,0.00,Wunderground v.1.15,2013-04-29 05:15:00,
2013-04-29 01:25:00,52.1,42.6,27.26,SSE,157,0.0,0.0,70,0.00,,,0.00,Wunderground v.1.15,2013-04-29 05:25:00,
2013-04-29 01:30:00,52.1,43.0,27.26,SSE,157,0.0,0.0,71,0.00,,,0.00,Wunderground v.1.15,2013-04-29 05:30:00,
2013-04-29 01:35:00,52.2,43.1,27.26,SSE,157,0.0,0.0,71,0.00,,,0.00,Wunderground v.1.15,2013-04-29 05:35:00,
2013-04-29 01:40:00,52.2,43.1,27.26,SSE,157,0.0,0.0,71,0.00,,,0.00,Wunderground v.1.15,2013-04-29 05:40:00,
2013-04-29 01:45:00,52.2,43.4,27.26,SSE,157,0.0,0.0,72,0.00,,,0.00,Wunderground v.1.15,2013-04-29 05:45:00,
2013-04-29 01:55:00,52.1,43.3,27.26,SSE,157,0.0,0.0,72,0.00,,,0.00,Wunderground v.1.15,2013-04-29 05:55:00,
2013-04-29 02:00:00,52.1,43.7,27.26,SSE,157,0.0,0.0,73,0.00,,,0.00,Wunderground v.1.15,2013-04-29 06:00:00,
2013-04-29 02:10:00,52.0,43.6,27.26,SSE,156,0.0,0.0,73,0.00,,,0.00,Wunderground v.1.15,2013-04-29 06:10:00,
2013-04-29 02:15:00,52.0,44.0,27.26,SSE,157,0.0,0.0,74,0.00,,,0.00,Wunderground v.1.15,2013-04-29 06:15:00,
2013-04-29 02:25:00,51.9,43.9,27.26,SSE,157,0.0,0.0,74,0.00,,,0.00,Wunderground v.1.15,2013-04-29 06:25:00,
2013-04-29 02:30:00,51.8,43.8,27.26,SSE,157,0.0,0.0,74,0.00,,,0.00,Wunderground v.1.15,2013-04-29 06:30:00,
2013-04-29 02:35:00,51.8,44.1,27.26,SSE,156,0.0,0.0,75,0.00,,,0.00,Wunderground v.1.15,2013-04-29 06:35:00,
2013-04-29 02:40:00,51.7,44.4,27.26,SSE,157,0.0,0.0,76,0.00,,,0.00,Wunderground v.1.15,2013-04-29 06:40:00,
2013-04-29 02:45:00,51.7,44.0,27.26,SSE,156,0.0,0.0,75,0.00,,,0.00,Wunderground v.1.15,2013-04-29 06:45:00,
2013-04-29 02:55:00,51.5,44.5,27.26,SSE,157,0.0,0.0,77,0.00,,,0.00,Wunderground v.1.15,2013-04-29 06:55:00,
2013-04-29 03:00:00,51.5,44.5,27.26,SSE,157,0.0,0.0,77,0.00,,,0.00,Wunderground v.1.15,2013-04-29 07:00:00,
2013-04-29 03:10:00,51.4,45.1,27.26,SSE,157,0.0,0.0,79,0.00,,,0.00,Wunderground v.1.15,2013-04-29 07:10:00,
2013-04-29 03:15:00,51.4,45.4,27.26,SSE,157,0.0,0.0,80,0.00,,,0.00,Wunderground v.1.15,2013-04-29 07:15:00,
2013-04-29 03:25:00,51.1,45.5,27.26,SSE,157,0.0,0.0,81,0.00,,,0.00,Wunderground v.1.15,2013-04-29 07:25:00,
2013-04-29 03:35:00,50.9,45.6,27.26,SSE,156,0.0,0.0,82,0.00,,,0.00,Wunderground v.1.15,2013-04-29 07:35:00,
2013-04-29 03:40:00,50.8,45.8,27.26,SSE,157,0.0,0.0,83,0.00,,,0.00,Wunderground v.1.15,2013-04-29 07:40:00,
2013-04-29 03:45:00,50.7,46.0,27.26,SSE,156,0.0,0.0,84,0.00,,,0.00,Wunderground v.1.15,2013-04-29 07:45:00,
2013-04-29 03:55:00,50.4,46.1,27.26,SSE,156,0.0,0.0,85,0.00,,,0.00,Wunderground v.1.15,2013-04-29 07:55:00,
2013-04-29 04:00:00,50.2,45.9,27.26,SSE,156,0.0,0.0,85,0.00,,,0.00,Wunderground v.1.15,2013-04-29 08:00:00,
2013-04-29 04:10:00,50.0,46.0,27.26,SSE,157,0.0,0.0,86,0.00,,,0.01,Wunderground v.1.15,2013-04-29 08:10:00,
2013-04-29 04:15:00,49.9,45.9,27.26,SSE,156,0.0,0.0,86,0.00,,,0.01,Wunderground v.1.15,2013-04-29 08:15:00,
2013-04-29 04:25:00,49.8,46.1,27.26,SSE,156,0.0,0.0,87,0.00,,,0.01,Wunderground v.1.15,2013-04-29 08:25:00,
2013-04-29 04:30:00,49.8,46.1,27.51,SSE,157,0.0,0.0,87,0.00,,,0.01,Wunderground v.1.15,2013-04-29 08:30:00,
2013-04-29 04:35:00,49.7,46.0,27.51,SSE,157,0.0,0.0,87,0.00,,,0.01,Wunderground v.1.15,2013-04-29 08:35:00,
2013-04-29 04:45:00,49.8,46.4,27.51,SSE,157,0.0,0.0,88,0.00,,,0.01,Wunderground v.1.15,2013-04-29 08:45:00,
2013-04-29 04:55:00,49.9,46.5,27.51,SSE,157,0.0,0.0,88,0.00,,,0.01,Wunderground v.1.15,2013-04-29 08:55:00,
2013-04-29 05:00:00,50.0,46.9,27.51,SSE,157,0.0,0.0,89,0.00,,,0.01,Wunderground v.1.15,2013-04-29 09:00:00,
2013-04-29 05:10:00,50.1,47.0,27.51,SSE,156,0.0,0.0,89,0.00,,,0.01,Wunderground v.1.15,2013-04-29 09:10:00,
2013-04-29 05:15:00,50.1,47.0,27.51,SSE,157,0.0,0.0,89,0.00,,,0.01,Wunderground v.1.15,2013-04-29 09:15:00,
2013-04-29 05:25:00,50.2,47.1,27.51,SSE,156,0.0,0.0,89,0.00,,,0.01,Wunderground v.1.15,2013-04-29 09:25:00,
2013-04-29 05:30:00,50.2,47.1,27.51,SSE,157,0.0,0.0,89,0.00,,,0.01,Wunderground v.1.15,2013-04-29 09:30:00,
2013-04-29 05:35:00,50.2,47.1,27.51,SSE,157,0.0,0.0,89,0.00,,,0.01,Wunderground v.1.15,2013-04-29 09:35:00,
2013-04-29 05:40:00,50.2,47.4,27.51,SSE,157,0.0,0.0,90,0.00,,,0.01,Wunderground v.1.15,2013-04-29 09:40:00,
2013-04-29 05:50:00,50.3,47.5,27.51,SSE,157,0.0,0.0,90,0.00,,,0.01,Wunderground v.1.15,2013-04-29 09:50:00,
2013-04-29 05:55:00,50.4,47.6,27.51,SSE,157,0.0,0.0,90,0.00,,,0.01,Wunderground v.1.15,2013-04-29 09:55:00,
2013-04-29 06:00:00,50.5,47.7,27.51,SSE,157,0.0,0.0,90,0.00,,,0.01,Wunderground v.1.15,2013-04-29 10:00:00,
2013-04-29 06:10:00,50.6,47.8,27.51,SSE,157,0.0,0.0,90,0.00,,,0.01,Wunderground v.1.15,2013-04-29 10:10:00,
2013-04-29 06:15:00,50.7,47.9,27.51,SSE,157,0.0,0.0,90,0.00,,,0.01,Wunderground v.1.15,2013-04-29 10:15:00,
2013-04-29 06:25:00,50.8,48.0,27.51,SSE,157,0.0,0.0,90,0.00,,,0.01,Wunderground v.1.15,2013-04-29 10:25:00,
2013-04-29 06:30:00,50.9,48.1,27.51,SSE,156,0.0,0.0,90,0.00,,,0.02,Wunderground v.1.15,2013-04-29 10:30:00,
2013-04-29 06:35:00,51.0,48.5,27.51,SSE,156,0.0,0.0,91,0.00,,,0.02,Wunderground v.1.15,2013-04-29 10:35:00,
2013-04-29 06:40:00,51.1,48.6,27.51,SSE,157,0.0,0.0,91,0.00,,,0.02,Wunderground v.1.15,2013-04-29 10:40:00,
2013-04-29 06:45:00,51.1,48.6,27.51,SSE,157,0.0,0.0,91,0.00,,,0.02,Wunderground v.1.15,2013-04-29 10:45:00,
2013-04-29 06:55:00,51.2,48.7,27.51,SSE,157,0.0,0.0,91,0.00,,,0.02,Wunderground v.1.15,2013-04-29 10:55:00,
2013-04-29 07:00:00,51.2,48.7,27.51,SSE,157,0.0,0.0,91,0.00,,,0.02,Wunderground v.1.15,2013-04-29 11:00:00,
2013-04-29 07:10:00,51.4,49.2,27.51,SSE,157,0.0,0.0,92,0.00,,,0.03,Wunderground v.1.15,2013-04-29 11:10:00,
2013-04-29 07:15:00,51.4,49.2,27.51,SSE,157,0.0,0.0,92,0.00,,,0.03,Wunderground v.1.15,2013-04-29 11:15:00,
2013-04-29 07:25:00,51.5,49.3,27.51,SSE,157,1.0,1.0,92,0.07,,,0.04,Wunderground v.1.15,2013-04-29 11:25:00,
2013-04-29 07:30:00,51.5,49.3,27.51,SSE,157,1.0,1.0,92,0.05,,,0.04,Wunderground v.1.15,2013-04-29 11:30:00,
2013-04-29 07:35:00,51.5,49.3,27.51,SSE,157,0.0,1.0,92,0.04,,,0.04,Wunderground v.1.15,2013-04-29 11:35:00,
2013-04-29 07:45:00,51.6,49.4,27.51,SE,140,1.0,1.0,92,0.00,,,0.04,Wunderground v.1.15,2013-04-29 11:45:00,
2013-04-29 07:50:00,51.6,49.4,27.51,SE,140,0.0,0.0,92,0.00,,,0.05,Wunderground v.1.15,2013-04-29 11:50:00,
2013-04-29 07:55:00,51.6,49.6,27.51,SE,138,1.0,1.0,93,0.00,,,0.05,Wunderground v.1.15,2013-04-29 11:55:00,
2013-04-29 08:00:00,51.6,49.6,27.51,SE,138,1.0,1.0,93,0.00,,,0.05,Wunderground v.1.15,2013-04-29 12:00:00,
2013-04-29 08:10:00,51.6,49.6,27.51,SE,137,1.0,1.0,93,0.00,,,0.05,Wunderground v.1.15,2013-04-29 12:10:00,
2013-04-29 08:15:00,51.6,49.6,27.51,SE,137,0.0,1.0,93,0.00,,,0.05,Wunderground v.1.15,2013-04-29 12:15:00,
2013-04-29 08:25:00,51.6,49.6,27.51,SE,128,1.0,1.0,93,0.00,,,0.06,Wunderground v.1.15,2013-04-29 12:25:00,
2013-04-29 08:30:00,51.6,49.6,27.51,SE,128,1.0,1.0,93,0.00,,,0.06,Wunderground v.1.15,2013-04-29 12:30:00,
2013-04-29 08:40:00,51.5,49.5,27.51,SE,128,0.0,0.0,93,0.00,,,0.06,Wunderground v.1.15,2013-04-29 12:40:00,
2013-04-29 08:45:00,51.4,49.4,27.51,ESE,123,1.0,5.0,93,0.00,,,0.06,Wunderground v.1.15,2013-04-29 12:45:00,
2013-04-29 08:55:00,51.4,49.2,27.51,ESE,123,1.0,4.0,92,0.00,,,0.06,Wunderground v.1.15,2013-04-29 12:55:00,
2013-04-29 09:00:00,51.4,49.2,27.51,ESE,122,1.0,1.0,92,0.00,,,0.06,Wunderground v.1.15,2013-04-29 13:00:00,
2013-04-29 09:10:00,51.5,49.3,27.51,ESE,123,0.0,0.0,92,0.00,,,0.06,Wunderground v.1.15,2013-04-29 13:10:00,
2013-04-29 09:15:00,51.6,49.4,27.51,ESE,123,0.0,0.0,92,0.00,,,0.06,Wunderground v.1.15,2013-04-29 13:15:00,
2013-04-29 09:25:00,51.7,49.5,27.51,ESE,122,0.0,1.0,92,0.00,,,0.06,Wunderground v.1.15,2013-04-29 13:25:00,
2013-04-29 09:30:00,51.7,49.5,27.51,North,360,0.0,0.0,92,0.00,,,0.06,Wunderground v.1.15,2013-04-29 13:30:00,
2013-04-29 09:40:00,51.7,49.5,27.51,North,5,0.0,0.0,92,0.00,,,0.06,Wunderground v.1.15,2013-04-29 13:40:00,
2013-04-29 09:45:00,51.8,49.5,27.51,North,5,0.0,0.0,92,0.00,,,0.06,Wunderground v.1.15,2013-04-29 13:45:00,
2013-04-29 09:50:00,51.7,49.5,27.51,North,10,0.0,1.0,92,0.00,,,0.06,Wunderground v.1.15,2013-04-29 13:50:00,
2013-04-29 10:00:00,51.7,49.5,27.51,ESE,111,1.0,1.0,92,0.00,,,0.06,Wunderground v.1.15,2013-04-29 14:00:00,
2013-04-29 10:05:00,51.8,49.8,27.51,ESE,113,1.0,1.0,93,0.00,,,0.07,Wunderground v.1.15,2013-04-29 14:05:00,
2013-04-29 10:10:00,51.8,49.8,27.51,ESE,112,0.0,4.0,93,0.00,,,0.07,Wunderground v.1.15,2013-04-29 14:10:00,
2013-04-29 10:20:00,51.9,49.9,27.51,ESE,112,1.0,1.0,93,0.00,,,0.07,Wunderground v.1.15,2013-04-29 14:20:00,
2013-04-29 10:25:00,51.9,49.9,27.51,ESE,117,1.0,1.0,93,0.00,,,0.07,Wunderground v.1.15,2013-04-29 14:25:00,
2013-04-29 10:30:00,51.9,49.9,27.51,ESE,118,1.0,4.0,93,0.00,,,0.07,Wunderground v.1.15,2013-04-29 14:30:00,
2013-04-29 10:40:00,51.9,49.9,27.51,ESE,117,1.0,1.0,93,0.00,,,0.08,Wunderground v.1.15,2013-04-29 14:40:00,
2013-04-29 10:45:00,51.9,49.9,27.51,ESE,117,1.0,2.0,93,0.05,,,0.09,Wunderground v.1.15,2013-04-29 14:45:00,
2013-04-29 10:55:00,52.1,50.1,27.51,ESE,117,0.0,1.0,93,0.05,,,0.09,Wunderground v.1.15,2013-04-29 14:55:00,
2013-04-29 11:00:00,52.2,50.2,27.51,ESE,117,1.0,1.0,93,0.04,,,0.10,Wunderground v.1.15,2013-04-29 15:00:00,
2013-04-29 11:05:00,52.1,50.1,27.51,ESE,104,1.0,1.0,93,0.04,,,0.10,Wunderground v.1.15,2013-04-29 15:05:00,
2013-04-29 11:10:00,52.1,50.1,27.51,ESE,103,1.0,1.0,93,0.04,,,0.10,Wunderground v.1.15,2013-04-29 15:10:00,
2013-04-29 11:20:00,52.0,50.0,27.51,ESE,116,1.0,1.0,93,0.08,,,0.12,Wunderground v.1.15,2013-04-29 15:20:00,
2013-04-29 11:25:00,51.9,49.9,27.51,ESE,116,1.0,1.0,93,0.08,,,0.12,Wunderground v.1.15,2013-04-29 15:25:00,
2013-04-29 11:35:00,51.7,49.7,27.51,ESE,115,1.0,2.0,93,0.09,,,0.14,Wunderground v.1.15,2013-04-29 15:35:00,
2013-04-29 11:40:00,51.7,49.7,27.51,ESE,115,1.0,1.0,93,0.08,,,0.14,Wunderground v.1.15,2013-04-29 15:40:00,
2013-04-29 11:45:00,51.8,49.8,27.51,ESE,115,0.0,1.0,93,0.05,,,0.14,Wunderground v.1.15,2013-04-29 15:45:00,
2013-04-29 11:55:00,51.9,49.9,27.51,ESE,115,1.0,1.0,93,0.15,,,0.16,Wunderground v.1.15,2013-04-29 15:55:00,
2013-04-29 12:00:00,51.9,49.9,27.51,ESE,115,1.0,1.0,93,0.10,,,0.17,Wunderground v.1.15,2013-04-29 16:00:00,
2013-04-29 12:10:00,51.9,49.9,27.51,ESE,115,1.0,4.0,93,0.09,,,0.18,Wunderground v.1.15,2013-04-29 16:10:00,
2013-04-29 12:20:00,51.9,49.9,27.51,ESE,115,1.0,1.0,93,0.04,,,0.18,Wunderground v.1.15,2013-04-29 16:20:00,
2013-04-29 12:25:00,51.8,49.8,27.51,ESE,119,1.0,1.0,93,0.00,,,0.19,Wunderground v.1.15,2013-04-29 16:25:00,
2013-04-29 12:30:00,51.9,49.9,27.51,ESE,119,1.0,1.0,93,0.00,,,0.19,Wunderground v.1.15,2013-04-29 16:30:00,
2013-04-29 12:40:00,52.1,50.1,27.51,ESE,118,1.0,4.0,93,0.07,,,0.20,Wunderground v.1.15,2013-04-29 16:40:00,
2013-04-29 12:50:00,51.9,49.9,27.51,ESE,117,1.0,1.0,93,0.14,,,0.22,Wunderground v.1.15,2013-04-29 16:50:00,
2013-04-29 12:55:00,51.9,49.9,27.51,ESE,117,1.0,1.0,93,0.08,,,0.23,Wunderground v.1.15,2013-04-29 16:55:00,
2013-04-29 13:00:00,52.0,50.0,27.51,ESE,117,1.0,1.0,93,0.08,,,0.23,Wunderground v.1.15,2013-04-29 17:00:00,
2013-04-29 13:05:00,52.1,50.1,27.51,ESE,117,0.0,1.0,93,0.06,,,0.23,Wunderground v.1.15,2013-04-29 17:05:00,
2013-04-29 13:15:00,52.2,50.5,27.51,ESE,117,0.0,1.0,94,0.00,,,0.24,Wunderground v.1.15,2013-04-29 17:15:00,
2013-04-29 13:20:00,52.3,50.6,27.51,ESE,117,1.0,1.0,94,0.00,,,0.24,Wunderground v.1.15,2013-04-29 17:20:00,
2013-04-29 13:30:00,52.4,50.7,27.51,ESE,117,0.0,2.0,94,0.00,,,0.24,Wunderground v.1.15,2013-04-29 17:30:00,
2013-04-29 13:40:00,52.5,50.8,27.51,ESE,117,1.0,1.0,94,0.00,,,0.25,Wunderground v.1.15,2013-04-29 17:40:00,
2013-04-29 13:45:00,52.6,50.9,27.51,ESE,117,1.0,1.0,94,0.00,,,0.25,Wunderground v.1.15,2013-04-29 17:45:00,
2013-04-29 13:55:00,52.9,51.2,27.51,ESE,117,1.0,1.0,94,0.00,,,0.25,Wunderground v.1.15,2013-04-29 17:55:00,
2013-04-29 14:00:00,53.1,51.4,27.51,ESE,117,1.0,1.0,94,0.00,,,0.26,Wunderground v.1.15,2013-04-29 18:00:00,
2013-04-29 14:05:00,53.2,51.5,27.51,ESE,117,1.0,1.0,94,0.00,,,0.26,Wunderground v.1.15,2013-04-29 18:05:00,
2013-04-29 14:15:00,53.2,51.5,27.51,ESE,117,1.0,1.0,94,0.00,,,0.26,Wunderground v.1.15,2013-04-29 18:15:00,
2013-04-29 14:20:00,53.1,51.4,27.51,ESE,117,1.0,1.0,94,0.00,,,0.27,Wunderground v.1.15,2013-04-29 18:20:00,
2013-04-29 14:25:00,53.1,51.4,27.51,ESE,117,1.0,1.0,94,0.00,,,0.27,Wunderground v.1.15,2013-04-29 18:25:00,
2013-04-29 14:30:00,53.2,51.5,27.51,ESE,117,0.0,0.0,94,0.00,,,0.27,Wunderground v.1.15,2013-04-29 18:30:00,
2013-04-29 14:40:00,53.3,51.6,27.51,ESE,103,1.0,1.0,94,0.00,,,0.27,Wunderground v.1.15,2013-04-29 18:40:00,
2013-04-29 14:45:00,53.2,51.5,27.51,ESE,113,1.0,1.0,94,0.00,,,0.27,Wunderground v.1.15,2013-04-29 18:45:00,
2013-04-29 14:55:00,53.2,51.5,27.51,ESE,112,1.0,1.0,94,0.00,,,0.27,Wunderground v.1.15,2013-04-29 18:55:00,
2013-04-29 15:00:00,53.1,51.4,27.51,ESE,113,1.0,1.0,94,0.00,,,0.28,Wunderground v.1.15,2013-04-29 19:00:00,
2013-04-29 15:05:00,53.2,51.5,27.51,ESE,117,1.0,1.0,94,0.00,,,0.28,Wunderground v.1.15,2013-04-29 19:05:00,
2013-04-29 15:15:00,53.2,51.5,27.51,ESE,116,1.0,1.0,94,0.04,,,0.29,Wunderground v.1.15,2013-04-29 19:15:00,
2013-04-29 15:25:00,52.9,51.2,27.51,ESE,116,1.0,1.0,94,0.04,,,0.29,Wunderground v.1.15,2013-04-29 19:25:00,
2013-04-29 15:30:00,52.9,51.2,27.51,ESE,115,0.0,0.0,94,0.00,,,0.29,Wunderground v.1.15,2013-04-29 19:30:00,
2013-04-29 15:40:00,52.8,51.1,27.51,ESE,115,0.0,1.0,94,0.00,,,0.30,Wunderground v.1.15,2013-04-29 19:40:00,
2013-04-29 15:45:00,52.8,51.1,27.51,ESE,115,1.0,1.0,94,0.00,,,0.30,Wunderground v.1.15,2013-04-29 19:45:00,
2013-04-29 15:55:00,52.8,51.1,27.51,ESE,108,0.0,0.0,94,0.00,,,0.30,Wunderground v.1.15,2013-04-29 19:55:00,
2013-04-29 16:00:00,52.8,51.1,27.51,ESE,108,0.0,0.0,94,0.00,,,0.30,Wunderground v.1.15,2013-04-29 20:00:00,
2013-04-29 16:05:00,52.8,51.1,27.51,ESE,108,1.0,1.0,94,0.00,,,0.30,Wunderground v.1.15,2013-04-29 20:05:00,
2013-04-29 16:10:00,52.8,51.1,27.51,ESE,108,0.0,1.0,94,0.00,,,0.30,Wunderground v.1.15,2013-04-29 20:10:00,
2013-04-29 16:20:00,52.8,51.1,27.51,ESE,108,0.0,2.0,94,0.00,,,0.30,Wunderground v.1.15,2013-04-29 20:20:00,
2013-04-29 16:25:00,52.8,51.1,27.51,ESE,108,0.0,2.0,94,0.00,,,0.30,Wunderground v.1.15,2013-04-29 20:25:00,
2013-04-29 16:35:00,52.8,51.1,27.51,ESE,108,0.0,1.0,94,0.00,,,0.31,Wunderground v.1.15,2013-04-29 20:35:00,
2013-04-29 16:40:00,52.8,51.1,27.51,ESE,107,0.0,0.0,94,0.00,,,0.31,Wunderground v.1.15,2013-04-29 20:40:00,
2013-04-29 16:45:00,52.9,51.2,27.51,ESE,108,0.0,0.0,94,0.00,,,0.31,Wunderground v.1.15,2013-04-29 20:45:00,
2013-04-29 16:55:00,52.9,51.2,27.51,ESE,107,0.0,1.0,94,0.00,,,0.31,Wunderground v.1.15,2013-04-29 20:55:00,
2013-04-29 17:00:00,52.9,51.2,27.51,ESE,107,0.0,0.0,94,0.00,,,0.31,Wunderground v.1.15,2013-04-29 21:00:00,
2013-04-29 17:10:00,53.0,51.3,27.51,ESE,108,0.0,1.0,94,0.00,,,0.31,Wunderground v.1.15,2013-04-29 21:10:00,
2013-04-29 17:20:00,53.1,51.4,27.51,ESE,107,0.0,0.0,94,0.00,,,0.32,Wunderground v.1.15,2013-04-29 21:20:00,
2013-04-29 17:25:00,53.2,51.8,27.51,ESE,108,0.0,0.0,95,0.05,,,0.33,Wunderground v.1.15,2013-04-29 21:25:00,
2013-04-29 17:30:00,53.2,51.8,27.51,ESE,107,0.0,0.0,95,0.05,,,0.33,Wunderground v.1.15,2013-04-29 21:30:00,
2013-04-29 17:40:00,53.3,51.9,27.51,ESE,107,0.0,0.0,95,0.05,,,0.34,Wunderground v.1.15,2013-04-29 21:40:00,
2013-04-29 17:50:00,53.4,51.7,27.51,ESE,108,0.0,0.0,94,0.04,,,0.34,Wunderground v.1.15,2013-04-29 21:50:00,
2013-04-29 17:55:00,53.5,52.1,27.51,ESE,107,0.0,0.0,95,0.04,,,0.35,Wunderground v.1.15,2013-04-29 21:55:00,
2013-04-29 18:05:00,53.5,52.1,27.51,ESE,107,0.0,0.0,95,0.04,,,0.35,Wunderground v.1.15,2013-04-29 22:05:00,
2013-04-29 18:10:00,53.5,52.1,27.51,ESE,108,0.0,0.0,95,0.04,,,0.36,Wunderground v.1.15,2013-04-29 22:10:00,
2013-04-29 18:20:00,53.5,52.1,27.51,ESE,107,0.0,0.0,95,0.07,,,0.37,Wunderground v.1.15,2013-04-29 22:20:00,
2013-04-29 18:25:00,53.5,52.1,27.51,ESE,108,0.0,1.0,95,0.09,,,0.38,Wunderground v.1.15,2013-04-29 22:25:00,
2013-04-29 18:30:00,53.5,52.1,27.51,ESE,107,0.0,0.0,95,0.07,,,0.38,Wunderground v.1.15,2013-04-29 22:30:00,
2013-04-29 18:40:00,53.5,52.1,27.51,ESE,107,1.0,1.0,95,0.09,,,0.40,Wunderground v.1.15,2013-04-29 22:40:00,
2013-04-29 18:45:00,53.5,52.1,27.51,ESE,108,1.0,2.0,95,0.07,,,0.40,Wunderground v.1.15,2013-04-29 22:45:00,
2013-04-29 18:50:00,53.5,52.1,27.51,ESE,108,1.0,1.0,95,0.05,,,0.40,Wunderground v.1.15,2013-04-29 22:50:00,
2013-04-29 19:00:00,53.5,52.1,27.51,ESE,108,0.0,0.0,95,0.00,,,0.40,Wunderground v.1.15,2013-04-29 23:00:00,
2013-04-29 19:10:00,53.6,52.2,27.51,ESE,108,0.0,0.0,95,0.00,,,0.41,Wunderground v.1.15,2013-04-29 23:10:00,
2013-04-29 19:15:00,53.5,52.1,27.51,ESE,107,0.0,0.0,95,0.00,,,0.41,Wunderground v.1.15,2013-04-29 23:15:00,
2013-04-29 19:25:00,53.5,52.1,27.51,ESE,108,1.0,1.0,95,0.00,,,0.42,Wunderground v.1.15,2013-04-29 23:25:00,
2013-04-29 19:30:00,53.5,52.1,27.51,ESE,108,1.0,1.0,95,0.00,,,0.42,Wunderground v.1.15,2013-04-29 23:30:00,
2013-04-29 19:35:00,53.5,52.1,27.51,ESE,108,0.0,1.0,95,0.00,,,0.42,Wunderground v.1.15,2013-04-29 23:35:00,
2013-04-29 19:45:00,53.5,52.1,27.51,ESE,108,0.0,1.0,95,0.00,,,0.42,Wunderground v.1.15,2013-04-29 23:45:00,
2013-04-29 19:50:00,53.5,52.1,27.51,ESE,108,0.0,0.0,95,0.00,,,0.42,Wunderground v.1.15,2013-04-29 23:50:00,
2013-04-29 19:55:00,53.5,52.1,27.51,ESE,108,0.0,0.0,95,0.00,,,0.42,Wunderground v.1.15,2013-04-29 23:55:00,
2013-04-29 20:05:00,53.4,52.0,27.51,ESE,108,0.0,1.0,95,0.00,,,0.43,Wunderground v.1.15,2013-04-30 00:05:00,
2013-04-29 20:10:00,53.4,52.0,27.51,ESE,108,0.0,0.0,95,0.00,,,0.43,Wunderground v.1.15,2013-04-30 00:10:00,
2013-04-29 20:15:00,53.4,52.0,27.51,ESE,107,0.0,0.0,95,0.00,,,0.43,Wunderground v.1.15,2013-04-30 00:15:00,
2013-04-29 20:25:00,53.4,52.0,27.51,ESE,108,0.0,1.0,95,0.00,,,0.43,Wunderground v.1.15,2013-04-30 00:25:00,
2013-04-29 20:30:00,53.4,52.0,27.51,ESE,108,0.0,0.0,95,0.00,,,0.43,Wunderground v.1.15,2013-04-30 00:30:00,
2013-04-29 20:40:00,53.4,52.0,27.51,ESE,108,0.0,1.0,95,0.00,,,0.43,Wunderground v.1.15,2013-04-30 00:40:00,
2013-04-29 20:45:00,53.4,52.0,27.51,ESE,107,0.0,1.0,95,0.00,,,0.43,Wunderground v.1.15,2013-04-30 00:45:00,
2013-04-29 20:50:00,53.4,52.0,27.51,ESE,107,0.0,0.0,95,0.00,,,0.44,Wunderground v.1.15,2013-04-30 00:50:00,
2013-04-29 20:55:00,53.4,52.0,27.51,ESE,108,0.0,0.0,95,0.00,,,0.44,Wunderground v.1.15,2013-04-30 00:55:00,
2013-04-29 21:00:00,53.4,52.0,27.51,ESE,107,0.0,2.0,95,0.00,,,0.44,Wunderground v.1.15,2013-04-30 01:00:00,
2013-04-29 21:10:00,53.3,51.9,27.51,ESE,108,0.0,0.0,95,0.00,,,0.44,Wunderground v.1.15,2013-04-30 01:10:00,
2013-04-29 21:15:00,53.4,52.0,27.51,ESE,108,0.0,1.0,95,0.00,,,0.44,Wunderground v.1.15,2013-04-30 01:15:00,
2013-04-29 21:25:00,53.3,51.9,27.51,ESE,108,0.0,0.0,95,0.00,,,0.45,Wunderground v.1.15,2013-04-30 01:25:00,
2013-04-29 21:30:00,53.3,51.9,27.51,ESE,108,0.0,0.0,95,0.00,,,0.45,Wunderground v.1.15,2013-04-30 01:30:00,